Simultaneous Nadir Overpasses (SNOs) Predictions

Prediction of SNOs between GOES-15 and METOP-A Satellite Orbit:

Table of predicted SNOs for the next 14.0 days since TLE Epoch: 7/12/2019
Index Date Time (GOES-15) GOES-15 Lat,Lon METOP-A Lat,Lon Distance(km) Time Diff (sec)
1 07/13/2019 05:42:42 0.12,-127.70 -0.23,-129.40 193.49 80
2 07/14/2019 05:19:22 0.14,-127.73 0.85,-124.42 377.45 80
3 07/15/2019 17:40:54 -0.12,-127.81 0.16,-129.00 136.26 80
4 07/16/2019 17:17:36 -0.14,-127.85 -0.98,-124.03 434.81 80
5 07/18/2019 05:39:17 0.12,-127.88 -0.05,-128.65 87.72 80
6 07/19/2019 05:15:59 0.14,-127.91 1.09,-123.68 482.74 80
7 07/20/2019 17:37:30 -0.11,-127.98 -0.03,-128.25 31.80 80
8 07/23/2019 05:33:13 0.11,-128.05 0.14,-127.90 16.42 80
9 07/24/2019 17:54:45 -0.08,-128.10 0.86,-132.49 499.18 80
10 07/25/2019 17:31:26 -0.10,-128.13 -0.22,-127.50 71.17 80




NCC Satellite Simultaneous Nadir Overpasses (SNOs) Prediction Service
